Tracking 29487 objects as of 11-Sep-2024
HD Live streaming from Space Station
objects crossing your sky now

STARLINK-1292

Track STARLINK-1292 now!
10-day predictions
STARLINK-1292 is classified as:


NORAD ID: 45394
Int'l Code: 2020-019AL
Perigee: 553.7 km
Apogee: 555.1 km
Inclination: 53.1 °
Period: 95.6 minutes
Semi major axis: 6925 km
RCS: Unknown
Launch date: March 18, 2020
Source: United States (US)
Launch site: AIR FORCE EASTERN TEST RANGE (AFETR)
Your satellite tracking list
Your tracking list is empty




NASA's NSSDC Master Catalog

Two Line Element Set (TLE):
1 45394U 20019AL  24255.51655967 -.00002048  00000-0 -11867-3 0  9991
2 45394  53.0539  69.5037 0001001  96.6426 263.4677 15.06397353247726
Source of the keplerian elements: AFSPC